Find Starlink 32957

NORAD ID: 63124 Int'l Des: 2025-039 Owner: SPXS Country: US Constellation: starlink operational
LEOCIRCULAR

リアルタイム位置

3D地球を読み込み中...

Starlink 32957について

説明を読み込み中...

次回通過

Passes for default location (London). Set your location on the main map for personalized predictions.

高度履歴

Loading altitude history...

軌道要素

1 63124U 25039W 26125.17506406 .00039318 00000-0 14300-2 0 9994
2 63124 43.0029 53.9468 0001475 265.5719 94.4964 15.27597156 66706
Epoch: May 5, 2026 • Age: 5 hours

現在のステータス

高度 483.8 km
速度 7.63 km/s
衛星直下点 26.85°N, 85.87°E
打ち上げ日 Feb 27, 2025
運用期間 1.1 years
タイプ internet

技術仕様

分類 Payload
質量 730.00 kg
乾燥質量 700.00 kg
総質量 730.00 kg
長さ 0.30 m
直径 4.10 m
スパン 29.00 m
形状 Box + pan
製造者 SPXS
バスタイプ Starlink V2M
フェーズステータス In Orbit
所有者/国 SPXS/US

Most Searched